カタログに戻る

DELTA 1 DEB

運用中SSO
NORAD 1529·DEBRIS·🇺🇸 United States

打ち上げ Jul 2, 1965 から Cape Canaveral Space Force Station

Loading…

次のパス (今後24時間)

TLE

最新Source: Space-Track

元期: Sep 14, 2026, 02:58 UTC

1 01529U 65051D   26257.12366103  .00000114  00000-0  69075-4 0  9995
2 01529  98.9677 138.6313 0035599 330.1800  29.7349 14.24301661168104

AllMySatでDELTA 1 DEBをリアルタイム追跡

Download on the App Store